Time,TemperatureF,DewpointF,PressureIn,WindDirection,WindDirectionDegrees,WindSpeedMPH,WindSpeedGustMPH,Humidity,HourlyPrecipIn,Conditions,Clouds,dailyrainin,SoftwareType,DateUTC
2013-12-27 00:03:00,11.3,7.2,30.18,ESE,112,0.0,0.0,83,0.00,,,0.00,VWS V14.01,2013-12-27 06:03:00,
2013-12-27 00:08:00,10.9,6.8,30.18,ESE,112,0.0,0.0,83,0.00,,,0.00,VWS V14.01,2013-12-27 06:08:00,
2013-12-27 00:13:00,10.6,6.4,30.18,ESE,112,0.0,0.0,83,0.00,,,0.00,VWS V14.01,2013-12-27 06:13:00,
2013-12-27 00:18:00,10.2,6.1,30.18,ESE,112,0.0,0.0,83,0.00,,,0.00,VWS V14.01,2013-12-27 06:18:00,
2013-12-27 00:23:00,10.0,5.9,30.18,ESE,112,0.0,0.0,83,0.00,,,0.00,VWS V14.01,2013-12-27 06:23:00,
2013-12-27 00:28:00,9.7,5.6,30.18,ESE,112,0.0,0.0,83,0.00,,,0.00,VWS V14.01,2013-12-27 06:28:00,
2013-12-27 00:33:00,9.3,5.2,30.18,ESE,112,0.0,0.0,83,0.00,,,0.00,VWS V14.01,2013-12-27 06:33:00,
2013-12-27 00:39:00,9.1,5.0,30.18,ESE,112,0.0,0.0,83,0.00,,,0.00,VWS V14.01,2013-12-27 06:39:00,
2013-12-27 00:44:00,8.8,4.7,30.18,ESE,112,0.0,0.0,83,0.00,,,0.00,VWS V14.01,2013-12-27 06:44:00,
2013-12-27 00:49:00,8.4,4.3,30.18,ESE,112,0.0,0.0,83,0.00,,,0.00,VWS V14.01,2013-12-27 06:49:00,
2013-12-27 00:54:00,8.1,4.0,30.18,ESE,112,0.0,0.0,83,0.00,,,0.00,VWS V14.01,2013-12-27 06:54:00,
2013-12-27 00:59:00,7.9,3.8,30.18,ESE,112,0.0,0.0,83,0.00,,,0.00,VWS V14.01,2013-12-27 06:59:00,
2013-12-27 01:04:00,7.5,3.5,30.15,ESE,112,0.0,0.0,83,0.00,,,0.00,VWS V14.01,2013-12-27 07:04:00,
2013-12-27 01:09:00,7.3,3.3,30.15,ESE,112,0.0,0.0,83,0.00,,,0.00,VWS V14.01,2013-12-27 07:09:00,
2013-12-27 01:14:00,7.2,3.1,30.15,ESE,112,0.0,0.0,83,0.00,,,0.00,VWS V14.01,2013-12-27 07:14:00,
2013-12-27 01:19:00,7.0,2.9,30.18,ESE,112,0.0,0.0,83,0.00,,,0.00,VWS V14.01,2013-12-27 07:19:00,
2013-12-27 01:24:00,6.6,2.6,30.18,ESE,112,0.0,0.0,83,0.00,,,0.00,VWS V14.01,2013-12-27 07:24:00,
2013-12-27 01:29:00,6.4,2.4,30.18,ESE,112,0.0,0.0,83,0.00,,,0.00,VWS V14.01,2013-12-27 07:29:00,
2013-12-27 01:34:00,6.3,2.2,30.18,ESE,112,0.0,0.0,83,0.00,,,0.00,VWS V14.01,2013-12-27 07:34:00,
2013-12-27 01:39:00,5.9,1.9,30.18,ESE,112,0.0,0.0,83,0.00,,,0.00,VWS V14.01,2013-12-27 07:39:00,
2013-12-27 01:44:00,5.7,1.7,30.18,ESE,112,0.0,0.0,83,0.00,,,0.00,VWS V14.01,2013-12-27 07:44:00,
2013-12-27 01:49:00,5.5,1.5,30.18,ESE,112,0.0,0.0,83,0.00,,,0.00,VWS V14.01,2013-12-27 07:49:00,
2013-12-27 01:54:00,5.4,1.3,30.18,ESE,112,0.0,0.0,83,0.00,,,0.00,VWS V14.01,2013-12-27 07:54:00,
2013-12-27 01:59:00,5.0,1.0,30.18,ESE,112,0.0,0.0,83,0.00,,,0.00,VWS V14.01,2013-12-27 07:59:00,
2013-12-27 02:05:00,5.0,1.0,30.18,ESE,112,0.0,0.0,83,0.00,,,0.00,VWS V14.01,2013-12-27 08:05:00,
2013-12-27 02:10:00,4.6,0.6,30.18,ESE,112,0.0,0.0,83,0.00,,,0.00,VWS V14.01,2013-12-27 08:10:00,
2013-12-27 02:15:00,4.5,0.4,30.18,ESE,112,0.0,0.0,83,0.00,,,0.00,VWS V14.01,2013-12-27 08:15:00,
2013-12-27 02:20:00,4.3,0.3,30.18,ESE,112,0.0,0.0,83,0.00,,,0.00,VWS V14.01,2013-12-27 08:20:00,
2013-12-27 02:25:00,4.1,0.1,30.18,ESE,112,0.0,0.0,83,0.00,,,0.00,VWS V14.01,2013-12-27 08:25:00,
2013-12-27 02:30:00,3.9,-0.1,30.18,ESE,112,0.0,0.0,83,0.00,,,0.00,VWS V14.01,2013-12-27 08:30:00,
2013-12-27 02:35:00,3.7,-0.3,30.21,ESE,112,0.0,0.0,83,0.00,,,0.00,VWS V14.01,2013-12-27 08:35:00,
2013-12-27 02:40:00,3.6,-0.4,30.21,ESE,112,0.0,0.0,83,0.00,,,0.00,VWS V14.01,2013-12-27 08:40:00,
2013-12-27 02:45:00,3.2,-0.8,30.21,ESE,112,0.0,0.0,83,0.00,,,0.00,VWS V14.01,2013-12-27 08:45:00,
2013-12-27 02:50:00,3.2,-0.8,30.18,ESE,112,0.0,0.0,83,0.00,,,0.00,VWS V14.01,2013-12-27 08:50:00,
2013-12-27 02:55:00,3.0,-1.0,30.18,ESE,112,0.0,0.0,83,0.00,,,0.00,VWS V14.01,2013-12-27 08:55:00,
2013-12-27 03:00:00,2.8,-1.1,30.18,ESE,112,0.0,0.0,83,0.00,,,0.00,VWS V14.01,2013-12-27 09:00:00,
2013-12-27 03:05:00,2.8,-1.1,30.18,ESE,112,0.0,0.0,83,0.00,,,0.00,VWS V14.01,2013-12-27 09:05:00,
2013-12-27 03:10:00,2.8,-1.1,30.18,ESE,112,0.0,0.0,83,0.00,,,0.00,VWS V14.01,2013-12-27 09:10:00,
2013-12-27 03:15:00,3.0,-1.0,30.18,ESE,112,0.0,0.0,83,0.00,,,0.00,VWS V14.01,2013-12-27 09:15:00,
2013-12-27 03:20:00,3.2,-0.8,30.18,ESE,112,0.0,0.0,83,0.00,,,0.00,VWS V14.01,2013-12-27 09:20:00,
2013-12-27 03:26:00,3.2,-0.8,30.18,ESE,112,0.0,0.0,83,0.00,,,0.00,VWS V14.01,2013-12-27 09:26:00,
2013-12-27 03:31:00,3.6,-0.4,30.18,ESE,112,0.0,0.0,83,0.00,,,0.00,VWS V14.01,2013-12-27 09:31:00,
2013-12-27 03:36:00,3.6,-0.4,30.18,ESE,112,0.0,0.0,83,0.00,,,0.00,VWS V14.01,2013-12-27 09:36:00,
2013-12-27 03:41:00,3.6,-0.4,30.18,ESE,112,0.0,0.0,83,0.00,,,0.00,VWS V14.01,2013-12-27 09:41:00,
2013-12-27 03:46:00,3.6,-0.4,30.18,ESE,112,0.0,0.0,83,0.00,,,0.00,VWS V14.01,2013-12-27 09:46:00,
2013-12-27 03:51:00,3.6,-0.4,30.18,ESE,112,0.0,0.0,83,0.00,,,0.00,VWS V14.01,2013-12-27 09:51:00,
2013-12-27 03:56:00,3.6,-0.4,30.18,ESE,112,0.0,0.0,83,0.00,,,0.00,VWS V14.01,2013-12-27 09:56:00,
2013-12-27 04:01:00,3.4,-0.6,30.15,ESE,112,0.0,0.0,83,0.00,,,0.00,VWS V14.01,2013-12-27 10:01:00,
2013-12-27 04:06:00,3.2,-0.8,30.15,ESE,112,0.0,0.0,83,0.00,,,0.00,VWS V14.01,2013-12-27 10:06:00,
2013-12-27 04:11:00,3.2,-0.8,30.15,ESE,112,0.0,0.0,83,0.00,,,0.00,VWS V14.01,2013-12-27 10:11:00,
2013-12-27 04:16:00,3.2,-0.8,30.18,ESE,112,0.0,0.0,83,0.00,,,0.00,VWS V14.01,2013-12-27 10:16:00,
2013-12-27 04:21:00,3.2,-0.8,30.18,ESE,112,0.0,0.0,83,0.00,,,0.00,VWS V14.01,2013-12-27 10:21:00,
2013-12-27 04:26:00,3.0,-1.0,30.18,ESE,112,0.0,0.0,83,0.00,,,0.00,VWS V14.01,2013-12-27 10:26:00,
2013-12-27 04:31:00,2.8,-1.1,30.18,ESE,112,0.0,0.0,83,0.00,,,0.00,VWS V14.01,2013-12-27 10:31:00,
2013-12-27 04:36:00,2.7,-1.3,30.18,ESE,112,0.0,0.0,83,0.00,,,0.00,VWS V14.01,2013-12-27 10:36:00,
2013-12-27 04:41:00,2.5,-1.5,30.18,ESE,112,0.0,0.0,83,0.00,,,0.00,VWS V14.01,2013-12-27 10:41:00,
2013-12-27 04:46:00,2.5,-1.5,30.18,ESE,112,0.0,0.0,83,0.00,,,0.00,VWS V14.01,2013-12-27 10:46:00,
2013-12-27 04:52:00,2.1,-1.9,30.18,ESE,112,0.0,0.0,83,0.00,,,0.00,VWS V14.01,2013-12-27 10:52:00,
2013-12-27 04:57:00,2.1,-1.9,30.18,ESE,112,0.0,0.0,83,0.00,,,0.00,VWS V14.01,2013-12-27 10:57:00,
2013-12-27 05:02:00,1.9,-2.0,30.18,ESE,112,0.0,0.0,83,0.00,,,0.00,VWS V14.01,2013-12-27 11:02:00,
2013-12-27 05:07:00,1.8,-2.2,30.18,ESE,112,0.0,0.0,83,0.00,,,0.00,VWS V14.01,2013-12-27 11:07:00,
2013-12-27 05:12:00,1.8,-2.2,30.18,ESE,112,0.0,0.0,83,0.00,,,0.00,VWS V14.01,2013-12-27 11:12:00,
2013-12-27 05:17:00,1.6,-2.4,30.18,ESE,112,0.0,0.0,83,0.00,,,0.00,VWS V14.01,2013-12-27 11:17:00,
2013-12-27 05:22:00,1.6,-2.4,30.18,ESE,112,0.0,0.0,83,0.00,,,0.00,VWS V14.01,2013-12-27 11:22:00,
2013-12-27 05:27:00,1.4,-2.5,30.18,ESE,112,0.0,0.0,83,0.00,,,0.00,VWS V14.01,2013-12-27 11:27:00,
2013-12-27 05:32:00,1.2,-2.7,30.15,ESE,112,0.0,0.0,83,0.00,,,0.00,VWS V14.01,2013-12-27 11:32:00,
2013-12-27 05:37:00,1.2,-2.7,30.15,ESE,112,0.0,0.0,83,0.00,,,0.00,VWS V14.01,2013-12-27 11:37:00,
2013-12-27 05:42:00,1.2,-2.7,30.15,ESE,112,0.0,0.0,83,0.00,,,0.00,VWS V14.01,2013-12-27 11:42:00,
2013-12-27 05:47:00,1.2,-2.7,30.15,ESE,112,0.0,0.0,83,0.00,,,0.00,VWS V14.01,2013-12-27 11:47:00,
2013-12-27 05:52:00,1.0,-2.9,30.15,ESE,112,0.0,0.0,83,0.00,,,0.00,VWS V14.01,2013-12-27 11:52:00,
2013-12-27 05:57:00,1.0,-2.9,30.15,ESE,112,0.0,0.0,83,0.00,,,0.00,VWS V14.01,2013-12-27 11:57:00,
2013-12-27 06:02:00,1.0,-2.9,30.15,ESE,112,0.0,0.0,83,0.00,,,0.00,VWS V14.01,2013-12-27 12:02:00,
2013-12-27 06:07:00,1.2,-2.7,30.15,ESE,112,0.0,0.0,83,0.00,,,0.00,VWS V14.01,2013-12-27 12:07:00,
2013-12-27 06:13:00,1.4,-2.5,30.15,ESE,112,0.0,0.0,83,0.00,,,0.00,VWS V14.01,2013-12-27 12:13:00,
2013-12-27 06:18:00,1.6,-2.4,30.15,ESE,112,0.0,0.0,83,0.00,,,0.00,VWS V14.01,2013-12-27 12:18:00,
2013-12-27 06:23:00,1.9,-2.0,30.15,ESE,112,0.0,0.0,83,0.00,,,0.00,VWS V14.01,2013-12-27 12:23:00,
2013-12-27 06:28:00,1.9,-2.0,30.15,ESE,112,0.0,0.0,83,0.00,,,0.00,VWS V14.01,2013-12-27 12:28:00,
2013-12-27 06:33:00,2.3,-1.7,30.15,ESE,112,0.0,0.0,83,0.00,,,0.00,VWS V14.01,2013-12-27 12:33:00,
2013-12-27 06:38:00,2.5,-1.5,30.15,ESE,112,0.0,0.0,83,0.00,,,0.00,VWS V14.01,2013-12-27 12:38:00,
2013-12-27 06:43:00,2.7,-1.3,30.15,ESE,112,0.0,0.0,83,0.00,,,0.00,VWS V14.01,2013-12-27 12:43:00,
2013-12-27 06:48:00,2.8,-1.1,30.15,ESE,112,0.0,0.0,83,0.00,,,0.00,VWS V14.01,2013-12-27 12:48:00,
2013-12-27 06:53:00,2.8,-1.1,30.15,ESE,112,0.0,0.0,83,0.00,,,0.00,VWS V14.01,2013-12-27 12:53:00,
2013-12-27 06:58:00,3.0,-1.0,30.15,ESE,112,0.0,0.0,83,0.00,,,0.00,VWS V14.01,2013-12-27 12:58:00,
2013-12-27 07:03:00,3.2,-0.8,30.15,ESE,112,0.0,0.0,83,0.00,,,0.00,VWS V14.01,2013-12-27 13:03:00,
2013-12-27 07:08:00,3.2,-0.8,30.15,ESE,112,0.0,0.0,83,0.00,,,0.00,VWS V14.01,2013-12-27 13:08:00,
2013-12-27 07:13:00,3.7,-0.3,30.15,ESE,112,0.0,0.0,83,0.00,,,0.00,VWS V14.01,2013-12-27 13:13:00,
2013-12-27 07:18:00,3.7,-0.3,30.15,ESE,112,0.0,0.0,83,0.00,,,0.00,VWS V14.01,2013-12-27 13:18:00,
2013-12-27 07:23:00,3.9,-0.1,30.15,ESE,112,0.0,0.0,83,0.00,,,0.00,VWS V14.01,2013-12-27 13:23:00,
2013-12-27 07:28:00,4.3,0.3,30.15,ESE,112,0.0,0.0,83,0.00,,,0.00,VWS V14.01,2013-12-27 13:28:00,
2013-12-27 07:33:00,4.5,0.4,30.15,ESE,112,0.0,0.0,83,0.00,,,0.00,VWS V14.01,2013-12-27 13:33:00,
2013-12-27 07:39:00,5.2,1.1,30.15,ENE,68,0.0,0.0,83,0.00,,,0.00,VWS V14.01,2013-12-27 13:39:00,
2013-12-27 07:44:00,5.9,1.9,30.15,ENE,68,0.0,0.0,83,0.00,,,0.00,VWS V14.01,2013-12-27 13:44:00,
2013-12-27 07:49:00,6.4,2.4,30.15,ENE,68,0.0,0.0,83,0.00,,,0.00,VWS V14.01,2013-12-27 13:49:00,
2013-12-27 07:54:00,7.2,3.1,30.15,ENE,68,0.0,1.3,83,0.00,,,0.00,VWS V14.01,2013-12-27 13:54:00,
2013-12-27 07:59:00,8.2,4.2,30.15,ENE,68,0.0,1.3,83,0.00,,,0.00,VWS V14.01,2013-12-27 13:59:00,
2013-12-27 08:04:00,9.1,5.0,30.15,ENE,68,0.0,1.3,83,0.00,,,0.00,VWS V14.01,2013-12-27 14:04:00,
2013-12-27 08:09:00,10.0,5.9,30.15,NE,45,0.0,2.2,83,0.00,,,0.00,VWS V14.01,2013-12-27 14:09:00,
2013-12-27 08:14:00,10.4,6.3,30.15,NE,45,0.0,0.0,83,0.00,,,0.00,VWS V14.01,2013-12-27 14:14:00,
2013-12-27 08:19:00,10.8,6.6,30.15,ENE,68,0.0,0.0,83,0.00,,,0.00,VWS V14.01,2013-12-27 14:19:00,
2013-12-27 08:24:00,10.9,6.8,30.15,ENE,68,0.0,0.0,83,0.00,,,0.00,VWS V14.01,2013-12-27 14:24:00,
2013-12-27 08:29:00,11.5,7.3,30.15,East,90,0.0,1.6,83,0.00,,,0.00,VWS V14.01,2013-12-27 14:29:00,
2013-12-27 08:34:00,12.4,8.2,30.12,ESE,112,0.0,2.0,83,0.00,,,0.00,VWS V14.01,2013-12-27 14:34:00,
2013-12-27 08:39:00,13.5,9.3,30.12,South,180,1.3,2.2,83,0.00,,,0.00,VWS V14.01,2013-12-27 14:39:00,
2013-12-27 08:44:00,14.7,12.6,30.12,South,180,0.0,1.6,91,0.00,,,0.00,VWS V14.01,2013-12-27 14:44:00,
2013-12-27 08:49:00,15.8,13.9,30.12,ENE,68,0.0,1.1,92,0.00,,,0.00,VWS V14.01,2013-12-27 14:49:00,
2013-12-27 08:54:00,16.7,14.8,30.12,East,90,1.3,2.7,92,0.00,,,0.00,VWS V14.01,2013-12-27 14:54:00,
2013-12-27 09:00:00,17.8,16.1,30.12,South,180,0.0,2.7,93,0.00,,,0.00,VWS V14.01,2013-12-27 15:00:00,
2013-12-27 09:05:00,18.5,17.1,30.12,NE,45,0.0,1.3,94,0.00,,,0.00,VWS V14.01,2013-12-27 15:05:00,
2013-12-27 09:10:00,19.0,17.4,30.12,SE,135,1.1,2.2,93,0.00,,,0.00,VWS V14.01,2013-12-27 15:10:00,
2013-12-27 09:15:00,19.4,17.7,30.12,West,270,0.0,2.7,93,0.00,,,0.00,VWS V14.01,2013-12-27 15:15:00,
2013-12-27 09:20:00,19.8,17.8,30.12,ENE,68,0.0,1.6,92,0.00,,,0.00,VWS V14.01,2013-12-27 15:20:00,
2013-12-27 09:25:00,20.3,18.4,30.12,SSE,158,0.0,0.0,92,0.00,,,0.00,VWS V14.01,2013-12-27 15:25:00,
2013-12-27 09:30:00,20.7,18.7,30.12,East,90,0.0,0.0,92,0.00,,,0.00,VWS V14.01,2013-12-27 15:30:00,
2013-12-27 09:35:00,21.2,19.2,30.12,SE,135,0.0,1.1,92,0.00,,,0.00,VWS V14.01,2013-12-27 15:35:00,
2013-12-27 09:40:00,21.6,19.6,30.12,NW,315,0.0,2.5,92,0.00,,,0.00,VWS V14.01,2013-12-27 15:40:00,
2013-12-27 09:45:00,21.9,20.0,30.12,NE,45,0.0,2.2,92,0.00,,,0.00,VWS V14.01,2013-12-27 15:45:00,
2013-12-27 09:50:00,22.5,20.5,30.12,ESE,112,1.3,1.3,92,0.00,,,0.00,VWS V14.01,2013-12-27 15:50:00,
2013-12-27 09:55:00,22.8,20.9,30.12,ENE,68,0.0,0.0,92,0.00,,,0.00,VWS V14.01,2013-12-27 15:55:00,
2013-12-27 10:00:00,23.0,20.8,30.12,ENE,68,2.5,2.5,91,0.00,,,0.00,VWS V14.01,2013-12-27 16:00:00,
2013-12-27 10:05:00,23.0,20.8,30.12,ENE,68,0.0,0.0,91,0.00,,,0.00,VWS V14.01,2013-12-27 16:05:00,
2013-12-27 10:10:00,23.5,21.3,30.12,NW,315,0.0,2.2,91,0.00,,,0.00,VWS V14.01,2013-12-27 16:10:00,
2013-12-27 10:15:00,23.7,21.5,30.09,NW,315,2.7,2.7,91,0.00,,,0.00,VWS V14.01,2013-12-27 16:15:00,
2013-12-27 10:20:00,23.9,21.7,30.09,North,0,0.0,0.0,91,0.00,,,0.00,VWS V14.01,2013-12-27 16:20:00,
2013-12-27 10:25:00,24.1,22.1,30.09,NNE,22,0.9,1.3,92,0.00,,,0.00,VWS V14.01,2013-12-27 16:25:00,
2013-12-27 10:31:00,24.3,22.3,30.09,NNW,338,0.9,2.5,92,0.00,,,0.00,VWS V14.01,2013-12-27 16:31:00,
2013-12-27 10:36:00,24.4,22.2,30.06,SW,225,1.3,3.1,91,0.00,,,0.00,VWS V14.01,2013-12-27 16:36:00,
2013-12-27 10:41:00,24.6,22.4,30.06,NE,45,0.0,2.7,91,0.00,,,0.00,VWS V14.01,2013-12-27 16:41:00,
2013-12-27 10:46:00,24.6,22.1,30.06,NW,315,1.3,1.3,90,0.00,,,0.00,VWS V14.01,2013-12-27 16:46:00,
2013-12-27 10:51:00,24.6,22.1,30.06,SSW,202,1.6,2.7,90,0.00,,,0.00,VWS V14.01,2013-12-27 16:51:00,
2013-12-27 10:56:00,24.8,22.0,30.06,SE,135,0.0,2.0,89,0.00,,,0.00,VWS V14.01,2013-12-27 16:56:00,
2013-12-27 11:01:00,24.8,22.0,30.06,ESE,112,0.9,3.8,89,0.00,,,0.00,VWS V14.01,2013-12-27 17:01:00,
2013-12-27 11:06:00,25.0,21.9,30.06,ENE,68,4.3,4.3,88,0.00,,,0.00,VWS V14.01,2013-12-27 17:06:00,
2013-12-27 11:11:00,25.2,22.1,30.06,SSE,158,0.0,4.3,88,0.00,,,0.00,VWS V14.01,2013-12-27 17:11:00,
2013-12-27 11:16:00,25.2,22.1,30.03,NNW,338,2.9,2.9,88,0.00,,,0.00,VWS V14.01,2013-12-27 17:16:00,
2013-12-27 11:21:00,25.3,22.0,30.03,SSE,158,1.6,2.0,87,0.00,,,0.00,VWS V14.01,2013-12-27 17:21:00,
2013-12-27 11:26:00,25.3,22.0,30.03,ENE,68,2.9,3.6,87,0.00,,,0.00,VWS V14.01,2013-12-27 17:26:00,
2013-12-27 11:31:00,25.7,22.4,30.03,SSE,158,2.9,2.9,87,0.00,,,0.00,VWS V14.01,2013-12-27 17:31:00,
2013-12-27 11:36:00,26.2,23.2,30.03,NE,45,0.0,2.2,88,0.00,,,0.00,VWS V14.01,2013-12-27 17:36:00,
2013-12-27 11:42:00,26.6,23.3,30.03,South,180,2.9,3.1,87,0.00,,,0.00,VWS V14.01,2013-12-27 17:42:00,
2013-12-27 11:47:00,27.0,23.6,30.00,SW,225,1.1,1.6,87,0.00,,,0.00,VWS V14.01,2013-12-27 17:47:00,
2013-12-27 11:52:00,27.9,24.2,30.00,North,0,1.1,3.1,86,0.00,,,0.00,VWS V14.01,2013-12-27 17:52:00,
2013-12-27 11:57:00,28.2,24.3,30.00,SW,225,2.7,4.0,85,0.00,,,0.00,VWS V14.01,2013-12-27 17:57:00,
2013-12-27 12:02:00,28.9,25.0,29.97,ESE,112,1.3,2.9,85,0.00,,,0.00,VWS V14.01,2013-12-27 18:02:00,
2013-12-27 12:07:00,29.5,25.0,29.97,SSW,202,1.1,3.6,83,0.00,,,0.00,VWS V14.01,2013-12-27 18:07:00,
2013-12-27 12:12:00,30.4,25.5,29.97,South,180,2.0,3.6,82,0.00,,,0.00,VWS V14.01,2013-12-27 18:12:00,
2013-12-27 12:17:00,31.3,25.8,30.00,WNW,292,0.9,3.6,80,0.00,,,0.00,VWS V14.01,2013-12-27 18:17:00,
2013-12-27 12:22:00,32.4,26.3,30.00,SE,135,1.3,1.3,78,0.00,,,0.00,VWS V14.01,2013-12-27 18:22:00,
2013-12-27 12:27:00,32.7,26.0,30.00,NNE,22,3.4,4.9,76,0.00,,,0.00,VWS V14.01,2013-12-27 18:27:00,
2013-12-27 12:32:00,33.1,26.0,29.97,South,180,3.6,3.6,75,0.00,,,0.00,VWS V14.01,2013-12-27 18:32:00,
2013-12-27 12:37:00,33.8,26.1,29.97,NE,45,1.3,2.9,73,0.00,,,0.00,VWS V14.01,2013-12-27 18:37:00,
2013-12-27 12:42:00,33.8,25.7,29.97,ESE,112,1.3,4.3,72,0.00,,,0.00,VWS V14.01,2013-12-27 18:42:00,
2013-12-27 12:47:00,34.5,25.8,29.94,West,270,2.7,2.7,70,0.00,,,0.00,VWS V14.01,2013-12-27 18:47:00,
2013-12-27 12:52:00,34.5,25.4,29.94,SSW,202,2.9,6.0,69,0.00,,,0.00,VWS V14.01,2013-12-27 18:52:00,
2013-12-27 12:58:00,34.7,25.6,29.94,WSW,248,1.3,3.1,69,0.00,,,0.00,VWS V14.01,2013-12-27 18:58:00,
2013-12-27 13:03:00,34.9,25.8,29.94,SSW,202,2.2,4.9,69,0.00,,,0.00,VWS V14.01,2013-12-27 19:03:00,
2013-12-27 13:08:00,34.7,25.6,29.94,SE,135,3.4,4.0,69,0.00,,,0.00,VWS V14.01,2013-12-27 19:08:00,
2013-12-27 13:13:00,34.5,25.8,29.94,East,90,1.3,3.1,70,0.00,,,0.00,VWS V14.01,2013-12-27 19:13:00,
2013-12-27 13:18:00,34.3,25.6,29.94,SSE,158,3.1,4.0,70,0.00,,,0.00,VWS V14.01,2013-12-27 19:18:00,
2013-12-27 13:23:00,34.2,25.4,29.94,NE,45,1.1,4.3,70,0.00,,,0.00,VWS V14.01,2013-12-27 19:23:00,
2013-12-27 13:28:00,34.0,25.6,29.94,SSW,202,2.5,3.1,71,0.00,,,0.00,VWS V14.01,2013-12-27 19:28:00,
2013-12-27 13:33:00,34.2,25.8,29.94,NW,315,2.0,3.1,71,0.00,,,0.00,VWS V14.01,2013-12-27 19:33:00,
2013-12-27 13:38:00,34.5,26.4,29.94,ESE,112,0.0,2.5,72,0.00,,,0.00,VWS V14.01,2013-12-27 19:38:00,
2013-12-27 13:43:00,34.9,26.8,29.94,NNW,338,0.9,1.1,72,0.00,,,0.00,VWS V14.01,2013-12-27 19:43:00,
2013-12-27 13:48:00,35.1,27.0,29.94,NE,45,1.6,1.6,72,0.00,,,0.00,VWS V14.01,2013-12-27 19:48:00,
2013-12-27 13:53:00,35.2,27.1,29.94,North,0,1.3,1.6,72,0.00,,,0.00,VWS V14.01,2013-12-27 19:53:00,
2013-12-27 13:58:00,35.6,27.5,29.94,NE,45,0.0,0.9,72,0.00,,,0.00,VWS V14.01,2013-12-27 19:58:00,
2013-12-27 14:03:00,36.0,27.5,29.91,NE,45,1.3,2.2,71,0.00,,,0.00,VWS V14.01,2013-12-27 20:03:00,
2013-12-27 14:08:00,36.7,28.2,29.91,NNE,22,0.0,3.4,71,0.00,,,0.00,VWS V14.01,2013-12-27 20:08:00,
2013-12-27 14:13:00,36.9,27.3,29.91,SSW,202,1.3,6.5,68,0.00,,,0.00,VWS V14.01,2013-12-27 20:13:00,
2013-12-27 14:18:00,37.2,28.0,29.88,NE,45,2.2,2.9,69,0.00,,,0.00,VWS V14.01,2013-12-27 20:18:00,
2013-12-27 14:24:00,37.4,28.2,29.88,NE,45,1.6,1.6,69,0.00,,,0.00,VWS V14.01,2013-12-27 20:24:00,
2013-12-27 14:29:00,37.4,27.5,29.88,ENE,68,1.6,2.7,67,0.00,,,0.00,VWS V14.01,2013-12-27 20:29:00,
2013-12-27 14:34:00,37.2,27.6,29.91,SSE,158,0.0,2.2,68,0.00,,,0.00,VWS V14.01,2013-12-27 20:34:00,
2013-12-27 14:39:00,37.2,28.0,29.91,NNW,338,1.1,1.3,69,0.00,,,0.00,VWS V14.01,2013-12-27 20:39:00,
2013-12-27 14:44:00,37.4,27.8,29.91,SSE,158,2.0,4.9,68,0.00,,,0.00,VWS V14.01,2013-12-27 20:44:00,
2013-12-27 14:49:00,37.9,28.0,29.91,SW,225,2.0,3.6,67,0.00,,,0.00,VWS V14.01,2013-12-27 20:49:00,
2013-12-27 14:54:00,38.1,27.4,29.91,SW,225,0.0,9.6,65,0.00,,,0.00,VWS V14.01,2013-12-27 20:54:00,
2013-12-27 14:59:00,37.6,26.9,29.91,SSE,158,4.3,5.6,65,0.00,,,0.00,VWS V14.01,2013-12-27 20:59:00,
2013-12-27 15:04:00,37.4,26.7,29.91,South,180,3.4,3.4,65,0.00,,,0.00,VWS V14.01,2013-12-27 21:04:00,
2013-12-27 15:09:00,37.6,26.9,29.91,SW,225,2.5,9.6,65,0.00,,,0.00,VWS V14.01,2013-12-27 21:09:00,
2013-12-27 15:14:00,37.6,27.3,29.91,WSW,248,2.2,4.7,66,0.00,,,0.00,VWS V14.01,2013-12-27 21:14:00,
2013-12-27 15:19:00,37.4,27.5,29.91,ENE,68,1.1,4.0,67,0.00,,,0.00,VWS V14.01,2013-12-27 21:19:00,
2013-12-27 15:24:00,37.2,27.3,29.91,East,90,6.3,6.3,67,0.00,,,0.00,VWS V14.01,2013-12-27 21:24:00,
2013-12-27 15:29:00,37.0,27.5,29.91,WSW,248,3.6,3.6,68,0.00,,,0.00,VWS V14.01,2013-12-27 21:29:00,
2013-12-27 15:34:00,36.9,27.3,29.91,WSW,248,2.9,3.6,68,0.00,,,0.00,VWS V14.01,2013-12-27 21:34:00,
2013-12-27 15:39:00,36.7,27.5,29.91,SSW,202,0.0,3.8,69,0.00,,,0.00,VWS V14.01,2013-12-27 21:39:00,
2013-12-27 15:45:00,36.5,27.7,29.91,SSW,202,2.2,2.2,70,0.00,,,0.00,VWS V14.01,2013-12-27 21:45:00,
2013-12-27 15:50:00,36.3,27.8,29.91,South,180,1.1,2.5,71,0.00,,,0.00,VWS V14.01,2013-12-27 21:50:00,
2013-12-27 15:55:00,36.3,27.8,29.91,SSE,158,1.3,5.4,71,0.00,,,0.00,VWS V14.01,2013-12-27 21:55:00,
2013-12-27 16:00:00,36.3,27.8,29.91,NNW,338,1.1,4.7,71,0.00,,,0.00,VWS V14.01,2013-12-27 22:00:00,
2013-12-27 16:05:00,36.1,28.0,29.91,South,180,0.9,3.1,72,0.00,,,0.00,VWS V14.01,2013-12-27 22:05:00,
2013-12-27 16:10:00,36.1,28.0,29.91,SSW,202,1.1,3.6,72,0.00,,,0.00,VWS V14.01,2013-12-27 22:10:00,
2013-12-27 16:15:00,36.1,28.0,29.91,SSW,202,3.4,3.4,72,0.00,,,0.00,VWS V14.01,2013-12-27 22:15:00,
2013-12-27 16:20:00,35.8,28.0,29.91,WSW,248,2.0,3.4,73,0.00,,,0.00,VWS V14.01,2013-12-27 22:20:00,
2013-12-27 16:25:00,35.8,28.0,29.91,ESE,112,2.7,2.7,73,0.00,,,0.00,VWS V14.01,2013-12-27 22:25:00,
2013-12-27 16:30:00,35.6,28.1,29.91,SSE,158,0.9,2.2,74,0.00,,,0.00,VWS V14.01,2013-12-27 22:30:00,
2013-12-27 16:35:00,35.1,28.0,29.91,SSE,158,2.7,2.7,75,0.00,,,0.00,VWS V14.01,2013-12-27 22:35:00,
2013-12-27 16:40:00,34.9,28.1,29.91,SE,135,0.0,0.0,76,0.00,,,0.00,VWS V14.01,2013-12-27 22:40:00,
2013-12-27 16:45:00,34.5,28.1,29.91,ESE,112,1.3,1.3,77,0.00,,,0.00,VWS V14.01,2013-12-27 22:45:00,
2013-12-27 16:50:00,34.2,28.0,29.91,SSE,158,2.5,2.5,78,0.00,,,0.00,VWS V14.01,2013-12-27 22:50:00,
2013-12-27 16:55:00,34.0,27.9,29.91,WNW,292,0.0,0.0,78,0.00,,,0.00,VWS V14.01,2013-12-27 22:55:00,
2013-12-27 17:00:00,34.2,28.0,29.91,WNW,292,1.1,1.1,78,0.00,,,0.00,VWS V14.01,2013-12-27 23:00:00,
2013-12-27 17:05:00,33.8,27.7,29.91,ENE,68,0.0,0.0,78,0.00,,,0.00,VWS V14.01,2013-12-27 23:05:00,
2013-12-27 17:11:00,33.6,27.8,29.91,SSE,158,0.0,1.6,79,0.00,,,0.00,VWS V14.01,2013-12-27 23:11:00,
2013-12-27 17:16:00,33.3,27.5,29.91,SSE,158,0.0,0.0,79,0.00,,,0.00,VWS V14.01,2013-12-27 23:16:00,
2013-12-27 17:21:00,32.9,27.4,29.91,SSW,202,2.5,2.5,80,0.00,,,0.00,VWS V14.01,2013-12-27 23:21:00,
2013-12-27 17:26:00,32.7,27.5,29.91,South,180,0.9,0.9,81,0.00,,,0.00,VWS V14.01,2013-12-27 23:26:00,
2013-12-27 17:31:00,32.2,27.0,29.94,South,180,0.9,0.9,81,0.00,,,0.00,VWS V14.01,2013-12-27 23:31:00,
2013-12-27 17:36:00,32.0,26.8,29.94,South,180,0.9,0.9,81,0.00,,,0.00,VWS V14.01,2013-12-27 23:36:00,
2013-12-27 17:41:00,32.0,27.4,29.94,South,180,0.9,0.9,83,0.00,,,0.00,VWS V14.01,2013-12-27 23:41:00,
2013-12-27 17:46:00,31.6,27.1,29.94,South,180,0.9,0.9,83,0.00,,,0.00,VWS V14.01,2013-12-27 23:46:00,
2013-12-27 17:51:00,31.5,26.9,29.94,ENE,68,0.0,0.9,83,0.00,,,0.00,VWS V14.01,2013-12-27 23:51:00,
2013-12-27 17:56:00,31.5,27.5,29.94,SW,225,0.0,0.0,85,0.00,,,0.00,VWS V14.01,2013-12-27 23:56:00,
2013-12-27 18:01:00,31.6,27.7,29.94,WSW,248,0.9,0.9,85,0.00,,,0.00,VWS V14.01,2013-12-28 00:01:00,
2013-12-27 18:06:00,32.0,28.3,29.94,East,90,0.9,2.5,86,0.00,,,0.00,VWS V14.01,2013-12-28 00:06:00,
2013-12-27 18:11:00,32.4,28.9,29.94,SSW,202,2.0,2.0,87,0.00,,,0.00,VWS V14.01,2013-12-28 00:11:00,
2013-12-27 18:17:00,32.7,29.0,29.94,SW,225,1.1,1.1,86,0.00,,,0.00,VWS V14.01,2013-12-28 00:17:00,
2013-12-27 18:22:00,32.7,29.0,29.94,SSE,158,0.0,0.0,86,0.00,,,0.00,VWS V14.01,2013-12-28 00:22:00,
2013-12-27 18:27:00,32.5,28.5,29.94,South,180,0.0,0.0,85,0.00,,,0.00,VWS V14.01,2013-12-28 00:27:00,
2013-12-27 18:32:00,33.1,29.4,29.94,SSE,158,3.1,3.1,86,0.00,,,0.00,VWS V14.01,2013-12-28 00:32:00,
2013-12-27 18:37:00,33.3,29.2,29.94,South,180,1.1,3.1,85,0.00,,,0.00,VWS V14.01,2013-12-28 00:37:00,
2013-12-27 18:42:00,33.3,29.2,29.94,SSE,158,0.0,0.0,85,0.00,,,0.00,VWS V14.01,2013-12-28 00:42:00,
2013-12-27 18:47:00,33.1,29.1,29.94,SSE,158,0.0,0.0,85,0.00,,,0.00,VWS V14.01,2013-12-28 00:47:00,
2013-12-27 18:52:00,33.3,29.2,29.94,ESE,112,1.3,4.3,85,0.00,,,0.00,VWS V14.01,2013-12-28 00:52:00,
2013-12-27 18:57:00,33.4,29.4,29.94,SE,135,1.1,1.1,85,0.00,,,0.00,VWS V14.01,2013-12-28 00:57:00,
2013-12-27 19:02:00,33.6,29.6,29.94,SSE,158,2.7,4.3,85,0.00,,,0.00,VWS V14.01,2013-12-28 01:02:00,
2013-12-27 19:07:00,33.8,29.5,29.94,SSW,202,1.3,2.2,84,0.00,,,0.00,VWS V14.01,2013-12-28 01:07:00,
2013-12-27 19:12:00,34.3,29.7,29.94,NNW,338,3.4,3.4,83,0.00,,,0.00,VWS V14.01,2013-12-28 01:12:00,
2013-12-27 19:17:00,34.3,29.7,29.94,SW,225,3.1,3.1,83,0.00,,,0.00,VWS V14.01,2013-12-28 01:17:00,
2013-12-27 19:22:00,34.3,29.4,29.94,WSW,248,1.6,1.6,82,0.00,,,0.00,VWS V14.01,2013-12-28 01:22:00,
2013-12-27 19:27:00,34.3,29.4,29.94,SW,225,4.0,4.0,82,0.00,,,0.00,VWS V14.01,2013-12-28 01:27:00,
2013-12-27 19:32:00,34.3,29.4,29.94,South,180,2.0,3.8,82,0.00,,,0.00,VWS V14.01,2013-12-28 01:32:00,
2013-12-27 19:37:00,34.0,28.8,29.94,South,180,1.3,1.6,81,0.00,,,0.00,VWS V14.01,2013-12-28 01:37:00,
2013-12-27 19:42:00,33.8,28.6,29.94,SSW,202,0.0,2.2,81,0.00,,,0.00,VWS V14.01,2013-12-28 01:42:00,
2013-12-27 19:47:00,33.8,28.9,29.94,WNW,292,2.2,2.2,82,0.00,,,0.00,VWS V14.01,2013-12-28 01:47:00,
2013-12-27 19:52:00,33.6,29.0,29.94,WSW,248,1.1,2.2,83,0.00,,,0.00,VWS V14.01,2013-12-28 01:52:00,
2013-12-27 19:57:00,33.3,28.7,29.94,SW,225,0.0,3.4,83,0.00,,,0.00,VWS V14.01,2013-12-28 01:57:00,
2013-12-27 20:02:00,33.3,29.0,29.94,WNW,292,0.9,3.1,84,0.00,,,0.00,VWS V14.01,2013-12-28 02:02:00,
2013-12-27 20:07:00,33.1,28.8,29.94,SSW,202,3.6,3.6,84,0.00,,,0.00,VWS V14.01,2013-12-28 02:07:00,
2013-12-27 20:12:00,32.9,28.9,29.94,ESE,112,0.0,3.6,85,0.00,,,0.00,VWS V14.01,2013-12-28 02:12:00,
2013-12-27 20:17:00,32.7,28.7,29.97,WNW,292,2.7,3.1,85,0.00,,,0.00,VWS V14.01,2013-12-28 02:17:00,
2013-12-27 20:23:00,32.5,28.5,29.97,SSW,202,0.0,2.7,85,0.00,,,0.00,VWS V14.01,2013-12-28 02:23:00,
2013-12-27 20:28:00,32.4,28.4,29.97,SW,225,0.0,1.6,85,0.00,,,0.00,VWS V14.01,2013-12-28 02:28:00,
2013-12-27 20:33:00,32.2,28.5,29.97,SSW,202,1.3,1.3,86,0.00,,,0.00,VWS V14.01,2013-12-28 02:33:00,
2013-12-27 20:38:00,32.2,28.5,29.97,West,270,2.5,2.9,86,0.00,,,0.00,VWS V14.01,2013-12-28 02:38:00,
2013-12-27 20:43:00,32.4,29.2,29.97,SSE,158,1.3,3.1,88,0.00,,,0.00,VWS V14.01,2013-12-28 02:43:00,
2013-12-27 20:48:00,32.2,28.8,29.97,ESE,112,0.0,1.3,87,0.00,,,0.00,VWS V14.01,2013-12-28 02:48:00,
2013-12-27 20:53:00,31.6,27.9,29.97,East,90,0.0,0.0,86,0.00,,,0.00,VWS V14.01,2013-12-28 02:53:00,
2013-12-27 20:58:00,31.3,27.6,29.97,SSE,158,1.3,2.5,86,0.00,,,0.00,VWS V14.01,2013-12-28 02:58:00,
2013-12-27 21:03:00,30.7,27.3,29.97,SSE,158,0.0,1.1,87,0.00,,,0.00,VWS V14.01,2013-12-28 03:03:00,
2013-12-27 21:08:00,30.2,26.8,29.97,SSE,158,0.0,0.0,87,0.00,,,0.00,VWS V14.01,2013-12-28 03:08:00,
2013-12-27 21:13:00,29.8,26.5,29.97,North,0,1.1,1.1,87,0.00,,,0.00,VWS V14.01,2013-12-28 03:13:00,
2013-12-27 21:18:00,29.7,26.3,30.00,North,0,1.1,1.1,87,0.00,,,0.00,VWS V14.01,2013-12-28 03:18:00,
2013-12-27 21:23:00,29.5,26.4,30.00,North,0,1.1,1.1,88,0.00,,,0.00,VWS V14.01,2013-12-28 03:23:00,
2013-12-27 21:28:00,28.9,25.8,30.00,North,0,1.1,1.1,88,0.00,,,0.00,VWS V14.01,2013-12-28 03:28:00,
2013-12-27 21:33:00,28.6,25.5,30.00,SSW,202,1.3,1.3,88,0.00,,,0.00,VWS V14.01,2013-12-28 03:33:00,
2013-12-27 21:38:00,28.4,25.6,30.00,ESE,112,0.0,2.0,89,0.00,,,0.00,VWS V14.01,2013-12-28 03:38:00,
2013-12-27 21:43:00,28.2,25.4,30.00,ESE,112,0.0,0.0,89,0.00,,,0.00,VWS V14.01,2013-12-28 03:43:00,
2013-12-27 21:49:00,27.9,25.0,30.00,ESE,112,0.0,0.0,89,0.00,,,0.00,VWS V14.01,2013-12-28 03:49:00,
2013-12-27 21:54:00,27.7,24.9,30.00,ESE,112,0.0,0.0,89,0.00,,,0.00,VWS V14.01,2013-12-28 03:54:00,
2013-12-27 21:59:00,27.3,24.8,30.00,ESE,112,0.0,0.0,90,0.00,,,0.00,VWS V14.01,2013-12-28 03:59:00,
2013-12-27 22:04:00,27.1,24.3,30.00,ESE,112,0.0,0.0,89,0.00,,,0.00,VWS V14.01,2013-12-28 04:04:00,
2013-12-27 22:09:00,27.0,24.2,30.00,ESE,112,0.0,0.0,89,0.00,,,0.00,VWS V14.01,2013-12-28 04:09:00,
2013-12-27 22:14:00,26.8,24.2,30.00,ESE,112,0.0,0.0,90,0.00,,,0.00,VWS V14.01,2013-12-28 04:14:00,
2013-12-27 22:19:00,26.4,23.9,30.00,ESE,112,0.0,0.0,90,0.00,,,0.00,VWS V14.01,2013-12-28 04:19:00,
2013-12-27 22:24:00,26.2,23.7,30.00,ESE,112,0.0,0.0,90,0.00,,,0.00,VWS V14.01,2013-12-28 04:24:00,
2013-12-27 22:29:00,26.1,23.5,30.00,ESE,112,0.0,0.0,90,0.00,,,0.00,VWS V14.01,2013-12-28 04:29:00,
2013-12-27 22:34:00,26.1,23.5,30.00,ESE,112,0.0,0.0,90,0.00,,,0.00,VWS V14.01,2013-12-28 04:34:00,
2013-12-27 22:39:00,25.7,23.2,30.00,ESE,112,0.0,0.0,90,0.00,,,0.00,VWS V14.01,2013-12-28 04:39:00,
2013-12-27 22:44:00,25.5,23.0,30.00,ESE,112,0.0,0.0,90,0.00,,,0.00,VWS V14.01,2013-12-28 04:44:00,
2013-12-27 22:49:00,25.5,23.0,30.00,ESE,112,0.0,0.0,90,0.00,,,0.00,VWS V14.01,2013-12-28 04:49:00,
2013-12-27 22:54:00,25.3,22.8,30.00,ESE,112,0.0,0.0,90,0.00,,,0.00,VWS V14.01,2013-12-28 04:54:00,
2013-12-27 22:59:00,25.0,22.5,30.00,ESE,112,0.0,0.0,90,0.00,,,0.00,VWS V14.01,2013-12-28 04:59:00,
2013-12-27 23:01:00,25.0,22.5,30.00,ESE,112,0.0,0.0,90,0.00,,,0.00,VWS V14.01,2013-12-28 05:01:00,
2013-12-27 23:02:00,25.0,22.5,30.00,ESE,112,0.0,0.0,90,0.00,,,0.00,VWS V14.01,2013-12-28 05:02:00,
2013-12-27 23:07:00,24.8,22.5,30.00,ESE,112,0.0,0.0,91,0.00,,,0.00,VWS V14.01,2013-12-28 05:07:00,
2013-12-27 23:12:00,24.6,22.4,30.00,ESE,112,0.0,0.0,91,0.00,,,0.00,VWS V14.01,2013-12-28 05:12:00,
2013-12-27 23:17:00,24.4,22.2,30.03,ESE,112,0.0,0.0,91,0.00,,,0.00,VWS V14.01,2013-12-28 05:17:00,
2013-12-27 23:23:00,24.4,22.2,30.03,ESE,112,0.0,0.0,91,0.00,,,0.00,VWS V14.01,2013-12-28 05:23:00,
2013-12-27 23:28:00,23.9,21.7,30.03,ESE,112,0.0,0.0,91,0.00,,,0.00,VWS V14.01,2013-12-28 05:28:00,
2013-12-27 23:33:00,23.9,21.7,30.00,ESE,112,0.0,0.0,91,0.00,,,0.00,VWS V14.01,2013-12-28 05:33:00,
2013-12-27 23:38:00,23.5,21.3,30.00,ESE,112,0.0,0.0,91,0.00,,,0.00,VWS V14.01,2013-12-28 05:38:00,
2013-12-27 23:43:00,23.5,21.3,30.00,ESE,112,0.0,0.0,91,0.00,,,0.00,VWS V14.01,2013-12-28 05:43:00,
2013-12-27 23:48:00,23.5,21.3,30.00,ESE,112,0.0,0.0,91,0.00,,,0.00,VWS V14.01,2013-12-28 05:48:00,
2013-12-27 23:53:00,23.5,21.3,30.00,ESE,112,0.0,0.0,91,0.00,,,0.00,VWS V14.01,2013-12-28 05:53:00,
2013-12-27 23:58:00,23.4,21.1,30.00,ESE,112,0.0,0.0,91,0.00,,,0.00,VWS V14.01,2013-12-28 05:58:00,